Wind_Speed
5 4 4 5 4 5 5 5 5 4 3 3 3 3 2 2 2 2 3 3 3 3 4 4 4 4 4 4 5 5 5 5 6 7 7 7 7 7 7 8 8 8 9 9 9 9 10 10 10
5 4 4 4 4 4 4 5 4 4 3 3 3 3 3 3 3 3 3 4 4 4 5 5 5 5 5 6 6 6 6 6 7 8 8 8 7 8 8 8 9 9 9 10 10 10 10 10 10
4 4 4 4 4 4 4 5 5 3 3 4 4 4 4 4 4 5 5 6 6 6 6 6 7 7 6 7 7 7 7 7 8 8 9 9 9 9 9 10 10 10 10 11 11 11 11 11 12
4 5 5 5 4 5 5 5 4 4 4 4 5 5 5 5 6 6 6 7 8 8 8 8 8 8 8 8 8 8 8 8 8 9 9 10 10 11 11 11 11 11 11 12 12 12 12 12 12
6 6 6 6 5 5 6 5 5 5 5 5 5 6 6 6 6 7 7 8 8 9 9 9 9 9 9 9 9 9 9 9 9 10 9 10 10 11 11 11 12 12 12 12 12 13 13 13 14
7 8 7 7 6 7 7 6 5 5 5 6 7 7 7 7 7 7 7 8 9 9 9 10 10 10 10 10 10 9 9 9 9 10 10 9 9 10 10 10 12 13 13 12 13 13 13 14 15
8 8 8 7 7 7 7 6 6 5 6 6 7 7 7 7 8 8 8 8 9 9 9 9 10 10 9 10 10 10 10 10 10 10 9 9 9 10 10 10 11 13 13 13 14 13 13 14 14
8 8 8 8 7 7 7 7 7 7 6 7 7 8 8 8 8 8 8 8 8 9 8 8 9 9 9 10 10 10 10 10 10 10 10 10 10 11 11 11 12 12 14 14 15 15 14 14 14
8 8 8 8 8 8 8 8 8 7 7 7 8 8 9 9 9 8 8 8 8 8 8 8 8 9 10 10 10 10 10 10 10 10 10 11 11 11 11 12 12 12 13 14 15 15 15 15 15
8 9 9 8 8 8 9 9 9 9 8 8 9 9 9 9 8 8 8 8 8 8 8 8 9 9 10 10 10 10 10 10 10 10 10 11 11 12 11 12 12 12 13 14 15 15 14 15 15
8 9 8 9 9 9 9 10 10 10 9 8 9 9 9 9 8 8 8 8 8 8 8 9 9 9 10 11 10 10 10 10 11 11 11 12 12 12 12 12 13 13 13 13 14 15 15 14 15
8 8 8 8 9 9 9 10 10 10 9 9 10 10 10 9 9 8 8 8 8 8 8 8 9 9 10 10 11 11 11 11 11 11 12 12 13 13 13 13 13 14 14 14 14 15 15 14 14
9 9 8 9 9 9 9 10 10 10 10 9 10 10 10 9 8 8 8 8 8 8 9 9 9 10 10 11 11 12 12 12 12 12 13 14 14 14 14 14 14 13 14 14 14 14 14 14 14
8 7 8 8 9 9 9 9 10 10 10 9 9 9 9 8 7 8 8 8 8 9 9 9 10 10 10 11 11 12 12 12 13 14 14 14 15 15 15 15 14 14 14 14 14 14 14 14 15
6 6 6 7 8 8 9 9 8 8 9 9 8 8 8 8 8 8 8 8 9 9 9 9 9 10 11 11 11 11 11 12 13 14 14 14 15 15 15 15 15 14 14 14 15 14 14 15 15
6 6 7 7 7 7 8 7 8 7 7 7 7 7 7 8 8 8 8 9 9 9 9 10 10 10 10 10 11 12 12 12 13 13 14 15 15 15 15 15 15 15 15 15 15 14 14 14 15
7 7 7 7 7 7 7 7 8 7 7 6 7 7 7 7 8 8 8 8 9 9 9 9 10 10 10 11 12 12 12 13 14 14 14 15 15 15 15 15 15 15 15 15 15 15 15 15 14
7 7 7 7 8 8 7 7 7 7 7 7 7 8 9 8 8 8 8 9 9 9 9 10 11 11 11 12 13 13 13 14 14 14 14 15 15 16 16 16 16 15 15 15 15 14 15 14 13
7 8 7 7 8 9 8 8 7 7 8 8 8 9 9 9 9 9 10 10 10 10 10 11 12 12 13 13 13 13 14 14 15 15 15 16 16 16 16 16 16 16 15 15 14 14 14 15 14
7 8 8 8 9 9 9 9 8 8 7 8 8 8 8 8 9 10 10 10 11 11 11 12 12 13 14 14 14 14 14 14 15 15 16 16 16 16 16 15 15 15 15 15 15 15 14 15 15
7 8 8 8 9 9 9 9 8 7 7 8 8 8 9 9 9 9 10 11 11 12 12 13 14 14 15 15 15 15 15 16 16 17 16 16 17 17 16 15 15 15 15 15 15 15 14 14 14
8 8 8 8 8 8 9 8 8 7 7 8 8 8 9 10 10 10 11 12 13 13 14 15 16 16 16 16 16 17 17 17 17 18 17 17 17 16 16 15 15 15 15 15 15 15 15 15 15
7 8 8 8 8 8 8 8 7 7 8 8 9 8 9 11 11 11 12 13 14 15 15 16 16 17 17 17 17 18 18 18 18 17 17 18 17 16 17 17 16 16 16 16 16 16 15 15 15
7 8 8 8 8 8 7 9 8 8 8 8 9 10 10 11 12 13 14 15 15 16 17 17 17 17 17 18 18 19 19 18 18 17 17 18 18 17 17 17 17 17 17 17 17 16 16 15 16
7 8 9 9 9 8 8 10 9 8 9 9 10 11 12 12 13 14 15 16 16 17 18 18 18 18 18 19 19 19 19 19 18 18 18 18 18 18 18 18 18 18 18 17 17 16 16 16 16
7 9 9 10 10 9 9 11 11 11 11 11 12 12 13 13 13 14 16 17 17 18 18 19 19 19 19 19 19 20 20 19 18 18 18 19 19 20 19 19 19 19 18 17 17 17 17 17 17
7 8 9 10 10 11 12 13 13 12 13 13 13 13 14 14 15 16 17 18 18 19 19 20 20 19 19 19 19 19 19 18 18 18 19 19 19 20 20 19 19 19 19 18 18 18 18 18 19
9 8 9 10 11 12 13 14 15 14 15 15 15 15 15 16 16 17 18 19 19 20 21 21 20 20 20 20 21 20 20 20 19 19 19 19 20 20 20 20 20 20 20 19 19 19 19 19 19
9 9 10 11 12 13 14 14 15 15 16 16 17 17 18 18 17 18 19 19 19 20 21 22 22 22 21 21 22 22 22 21 21 20 20 21 21 21 20 20 20 20 20 21 21 21 20 20 20
10 10 11 12 14 15 15 15 15 16 17 18 18 18 19 20 20 19 20 20 20 21 22 22 23 23 22 22 23 23 23 22 22 22 23 23 22 22 22 22 22 22 22 22 22 22 22 22 22
Wind_Direction
194 193 186 193 203 208 208 202 199 184 189 190 196 192 201 209 230 227 225 234 247 250 238 236 252 259 259 266 275 276 274 272 273 268 264 266 267 270 263 261 262 264 266 268 269 270 270 269 269
195 198 194 201 210 221 217 215 210 199 190 194 204 212 226 232 242 252 254 258 262 261 255 249 253 262 264 264 271 272 273 274 272 265 264 268 269 270 268 266 264 265 268 272 273 272 271 271 270
202 206 205 210 215 224 224 226 230 209 210 219 225 230 239 247 247 254 261 263 267 266 263 260 257 261 265 265 267 271 272 272 271 266 266 267 267 268 268 267 267 267 268 269 269 271 273 273 270
215 221 216 223 228 233 237 238 231 226 227 238 244 239 247 251 253 260 266 268 265 265 262 260 259 262 265 264 263 268 268 268 267 267 269 268 269 270 269 268 268 270 273 272 269 272 273 273 273
223 229 228 230 234 239 242 249 250 245 245 243 252 252 253 256 261 264 265 271 270 268 264 262 260 260 263 262 262 266 266 266 266 268 271 271 270 270 270 271 269 270 273 273 272 273 273 274 274
230 233 238 240 240 241 243 246 255 253 254 251 256 260 259 259 264 266 266 273 275 272 268 263 256 254 257 258 259 261 265 266 267 271 271 270 270 273 273 275 275 271 270 272 274 274 277 278 275
236 239 244 248 251 252 254 255 264 270 264 261 261 265 268 267 269 271 270 272 271 270 267 260 253 251 254 256 258 259 263 264 267 272 273 272 274 274 274 280 281 277 275 275 275 273 279 278 277
242 247 252 253 256 257 260 259 265 269 268 263 264 269 269 269 273 275 270 271 272 271 265 259 253 251 255 258 258 262 263 264 266 271 274 275 276 278 278 280 285 281 277 276 275 274 280 278 276
243 247 253 255 255 258 258 257 262 266 266 265 267 268 269 269 270 270 268 269 271 273 268 260 256 256 257 258 261 264 263 266 269 272 274 278 280 280 282 283 286 285 283 282 280 277 280 276 275
245 251 255 257 258 260 260 262 264 265 269 269 269 269 269 269 269 268 267 269 270 271 270 264 260 258 260 261 265 267 268 269 271 273 275 278 282 281 282 285 289 289 286 284 284 281 281 277 274
247 250 253 258 261 261 261 264 264 264 267 266 267 268 269 266 267 268 270 272 270 267 264 266 267 267 267 265 266 268 270 270 271 272 273 275 280 282 282 284 288 289 288 287 285 283 281 277 273
252 254 257 262 262 259 260 262 263 262 263 263 264 267 266 263 262 265 269 270 271 269 266 265 269 273 275 270 267 267 268 270 273 273 274 274 278 279 281 284 287 289 288 286 285 283 281 279 274
256 257 257 261 261 263 265 265 266 262 260 258 259 260 260 259 259 261 265 271 275 274 274 273 276 277 276 271 267 266 266 269 272 272 274 275 276 277 279 281 283 286 287 286 287 285 282 280 276
260 262 262 260 260 263 263 265 266 264 262 258 255 257 254 250 251 257 262 267 272 276 278 277 277 277 277 276 271 268 265 266 269 273 274 276 277 277 279 284 286 287 286 287 287 288 284 281 280
261 262 268 267 265 261 262 263 263 263 261 256 254 252 250 249 251 256 260 265 268 272 275 277 277 275 275 275 273 272 268 267 270 274 275 278 279 279 282 284 285 287 288 289 289 289 285 282 281
262 263 265 269 270 269 266 266 264 257 252 249 247 248 252 254 255 260 262 266 268 272 276 278 279 278 279 276 274 275 274 271 273 277 280 281 281 281 283 282 283 285 285 287 287 286 283 281 281
262 265 270 272 277 275 266 268 256 247 250 252 250 252 254 256 259 262 263 267 272 275 278 281 280 283 285 283 280 277 276 276 275 276 279 281 283 283 284 284 282 283 285 288 287 284 284 282 280
268 269 274 277 279 274 268 272 258 252 250 254 258 257 258 259 264 269 270 272 278 279 278 281 283 285 287 285 283 281 279 278 277 276 278 282 284 287 286 285 285 285 284 286 287 284 284 286 284
275 274 274 279 280 279 277 274 265 263 263 257 257 256 259 260 262 268 273 277 281 283 283 282 283 284 285 283 282 281 281 280 278 277 280 283 286 288 289 286 284 285 285 286 285 282 284 285 287
276 278 276 275 277 277 278 275 268 264 264 261 259 256 256 258 260 266 271 276 280 283 284 284 283 282 283 282 280 279 280 280 280 280 280 284 286 287 288 287 285 284 284 283 283 283 282 284 287
275 281 282 282 278 275 272 267 263 255 257 259 263 262 262 263 264 267 272 277 281 284 286 286 286 286 284 281 279 278 278 280 281 282 283 285 287 288 287 287 285 284 284 281 283 283 281 281 283
275 278 279 279 275 273 270 266 260 260 260 256 261 265 266 268 268 274 275 279 282 284 286 287 288 288 285 281 279 278 279 281 282 282 282 283 284 284 285 286 288 286 283 281 283 283 282 282 282
277 277 278 274 270 269 269 269 262 268 264 263 266 268 272 271 270 274 277 280 283 287 287 286 287 287 285 282 279 278 278 280 281 283 282 280 280 281 283 285 285 284 283 282 283 284 285 284 282
282 279 277 274 268 261 262 267 266 268 271 276 275 275 275 274 273 276 278 281 284 287 289 288 288 287 284 281 278 278 280 279 279 279 280 279 278 279 280 282 284 283 282 283 282 283 283 285 284
283 285 283 277 269 264 259 261 268 267 269 278 284 286 284 280 277 279 281 283 286 289 289 289 288 287 284 282 280 278 279 279 277 277 278 279 280 280 280 281 281 281 282 282 282 281 282 283 283
281 282 282 282 278 270 261 263 268 271 271 277 283 287 288 288 287 285 286 286 286 287 288 288 287 286 284 282 280 279 279 279 281 278 278 279 280 280 279 280 279 278 278 279 279 280 280 281 282
279 276 277 279 280 272 267 267 268 274 276 277 279 282 283 285 286 284 285 286 285 285 286 286 286 285 283 281 281 279 279 278 279 280 280 280 281 281 278 279 278 277 277 278 278 279 280 282 283
276 279 276 274 279 277 273 271 272 273 275 277 279 282 282 283 285 285 284 285 285 285 286 285 282 281 281 282 281 279 278 278 277 279 280 280 280 280 278 278 279 277 278 279 278 278 280 282 284
275 275 277 278 278 278 278 278 280 277 278 282 283 284 284 285 286 287 286 285 284 284 284 283 282 281 280 280 280 278 277 276 276 276 279 280 279 279 279 279 279 278 279 279 279 278 279 281 282
274 272 274 276 277 277 279 280 282 281 281 284 286 286 286 286 284 285 288 287 286 284 283 281 281 280 281 280 278 277 277 276 276 276 276 277 278 276 277 281 277 277 277 279 279 277 278 279 281
Height
5865 5866 5867 5868 5869 5868 5868 5868 5868 5868 5869 5869 5870 5870 5871 5872 5873 5875 5873 5872 5872 5872 5872 5872 5872 5872 5873 5873 5873 5873 5873 5873 5873 5873 5873 5873 5872 5872 5873 5872 5872 5872 5872 5872 5872 5871 5871 5870 5870
5865 5865 5867 5868 5867 5867 5868 5867 5868 5868 5868 5868 5869 5870 5870 5871 5871 5871 5871 5871 5871 5871 5871 5871 5871 5871 5872 5872 5872 5872 5872 5872 5872 5872 5872 5871 5871 5871 5871 5871 5871 5870 5870 5870 5870 5869 5869 5868 5868
5864 5865 5867 5867 5866 5867 5867 5866 5867 5867 5867 5868 5868 5869 5869 5870 5870 5870 5870 5870 5870 5870 5870 5870 5870 5870 5871 5871 5871 5871 5871 5871 5870 5870 5870 5870 5870 5870 5870 5869 5869 5868 5868 5868 5868 5867 5867 5866 5866
5864 5865 5866 5866 5866 5866 5866 5865 5866 5866 5866 5867 5867 5868 5868 5869 5868 5868 5868 5868 5868 5868 5868 5868 5868 5869 5869 5869 5869 5869 5869 5869 5869 5869 5869 5869 5868 5868 5868 5868 5867 5867 5866 5866 5865 5865 5864 5864 5863
5864 5864 5865 5864 5865 5865 5864 5864 5865 5865 5865 5866 5866 5866 5866 5867 5867 5867 5867 5866 5866 5866 5866 5866 5866 5867 5867 5867 5868 5868 5868 5868 5868 5867 5867 5867 5867 5866 5866 5865 5865 5865 5864 5863 5863 5862 5862 5861 5860
5863 5863 5864 5863 5864 5864 5863 5863 5863 5864 5864 5864 5865 5865 5865 5865 5865 5865 5865 5864 5864 5864 5864 5863 5864 5864 5865 5866 5866 5866 5866 5866 5866 5865 5865 5865 5865 5864 5864 5863 5863 5862 5862 5861 5860 5860 5859 5858 5857
5862 5862 5862 5863 5862 5862 5862 5862 5862 5863 5863 5863 5863 5863 5863 5863 5863 5863 5863 5863 5862 5862 5861 5861 5861 5862 5863 5863 5864 5864 5864 5864 5864 5864 5864 5863 5863 5862 5861 5861 5860 5860 5859 5858 5858 5857 5856 5855 5854
5860 5861 5860 5861 5861 5861 5861 5861 5861 5861 5861 5861 5861 5861 5862 5862 5862 5861 5861 5861 5861 5861 5860 5860 5860 5861 5861 5862 5862 5862 5862 5862 5862 5862 5862 5861 5861 5860 5859 5859 5858 5857 5857 5856 5855 5854 5854 5852 5850
5859 5860 5859 5859 5859 5859 5859 5859 5859 5859 5859 5859 5859 5859 5860 5860 5860 5860 5860 5859 5859 5859 5859 5859 5859 5859 5859 5860 5860 5860 5860 5860 5860 5860 5860 5859 5858 5858 5857 5856 5856 5855 5854 5853 5852 5851 5851 5849 5848
5856 5857 5857 5858 5858 5857 5857 5857 5857 5857 5857 5857 5857 5857 5857 5857 5857 5858 5858 5858 5857 5857 5857 5857 5857 5857 5857 5857 5857 5858 5858 5858 5857 5857 5857 5857 5856 5855 5855 5854 5853 5853 5852 5851 5849 5848 5848 5846 5845
5854 5854 5855 5855 5855 5855 5854 5854 5854 5855 5855 5855 5855 5855 5855 5855 5855 5855 5855 5855 5856 5856 5855 5855 5855 5855 5855 5855 5855 5855 5855 5855 5855 5855 5855 5854 5854 5853 5852 5852 5851 5850 5849 5848 5846 5846 5845 5844 5843
5852 5852 5852 5852 5852 5852 5852 5852 5852 5852 5853 5853 5852 5852 5853 5853 5853 5853 5853 5853 5853 5853 5853 5853 5853 5853 5853 5853 5852 5852 5852 5852 5852 5852 5852 5851 5851 5850 5850 5849 5848 5847 5846 5845 5844 5842 5841 5841 5839
5849 5849 5849 5849 5849 5849 5849 5849 5849 5849 5850 5850 5850 5850 5850 5850 5850 5851 5851 5851 5851 5851 5851 5851 5850 5850 5850 5850 5850 5849 5849 5849 5849 5849 5848 5848 5848 5847 5846 5846 5845 5844 5843 5842 5841 5840 5838 5837 5836
5847 5847 5846 5846 5846 5846 5846 5846 5846 5846 5847 5847 5847 5847 5847 5848 5848 5848 5849 5849 5849 5849 5848 5848 5848 5848 5847 5847 5847 5846 5846 5846 5846 5845 5845 5845 5844 5844 5843 5842 5841 5841 5840 5839 5838 5837 5835 5834 5833
5844 5845 5845 5844 5844 5843 5844 5844 5843 5844 5844 5844 5844 5845 5845 5845 5846 5846 5846 5846 5846 5846 5846 5845 5845 5845 5844 5844 5844 5843 5843 5843 5843 5842 5842 5841 5841 5840 5839 5839 5838 5837 5836 5835 5834 5833 5832 5831 5830
5842 5843 5843 5842 5841 5841 5842 5841 5841 5841 5841 5841 5842 5842 5843 5843 5843 5843 5844 5844 5844 5843 5843 5843 5842 5842 5842 5841 5841 5840 5840 5840 5839 5839 5838 5838 5837 5836 5836 5835 5835 5834 5833 5832 5831 5830 5829 5827 5826
5840 5840 5840 5840 5839 5838 5838 5838 5837 5838 5838 5838 5839 5840 5840 5840 5840 5841 5841 5841 5841 5841 5840 5840 5839 5839 5839 5838 5838 5837 5837 5836 5836 5835 5835 5834 5833 5833 5832 5831 5831 5830 5829 5828 5827 5826 5825 5824 5822
5838 5838 5837 5837 5837 5836 5836 5835 5835 5835 5836 5836 5837 5837 5838 5838 5838 5838 5838 5838 5838 5838 5838 5837 5837 5836 5836 5835 5834 5834 5833 5833 5832 5832 5831 5830 5830 5829 5828 5828 5827 5826 5825 5824 5823 5822 5821 5820 5818
5836 5836 5835 5835 5834 5834 5833 5833 5833 5833 5833 5834 5834 5835 5835 5835 5836 5835 5835 5835 5835 5835 5835 5834 5834 5833 5832 5832 5831 5830 5830 5829 5829 5828 5827 5826 5826 5825 5824 5823 5822 5822 5821 5820 5819 5818 5817 5816 5815
5833 5833 5833 5833 5832 5831 5831 5831 5831 5831 5831 5832 5832 5832 5833 5833 5833 5833 5833 5832 5832 5832 5831 5831 5830 5829 5829 5828 5827 5827 5826 5825 5825 5824 5823 5822 5821 5821 5820 5819 5818 5817 5817 5816 5815 5814 5813 5812 5811
5831 5830 5830 5830 5829 5828 5829 5829 5829 5829 5829 5829 5829 5829 5830 5830 5830 5830 5829 5829 5829 5829 5828 5827 5826 5825 5825 5824 5823 5823 5822 5821 5821 5820 5819 5818 5817 5816 5815 5815 5814 5813 5812 5811 5811 5810 5809 5808 5807
5828 5828 5828 5827 5826 5826 5826 5826 5826 5826 5826 5826 5826 5826 5827 5827 5827 5827 5826 5826 5826 5825 5825 5824 5823 5821 5820 5820 5819 5818 5818 5817 5816 5816 5815 5814 5813 5812 5811 5810 5809 5809 5808 5807 5806 5805 5805 5804 5803
5825 5825 5825 5824 5824 5824 5823 5823 5824 5823 5823 5823 5823 5823 5823 5824 5824 5823 5823 5822 5822 5822 5821 5820 5819 5818 5816 5815 5815 5814 5813 5813 5812 5811 5810 5809 5808 5807 5807 5806 5805 5804 5804 5803 5802 5801 5800 5799 5798
5823 5823 5822 5821 5821 5821 5821 5820 5821 5820 5820 5820 5820 5820 5820 5820 5820 5820 5819 5819 5818 5817 5816 5815 5814 5813 5812 5811 5810 5809 5809 5808 5807 5806 5805 5804 5804 5803 5802 5801 5800 5800 5799 5798 5797 5796 5795 5794 5794
5821 5821 5820 5818 5818 5818 5818 5817 5818 5818 5818 5817 5817 5817 5817 5816 5816 5816 5815 5814 5814 5813 5812 5811 5810 5808 5807 5806 5805 5804 5803 5803 5802 5801 5801 5800 5799 5798 5797 5796 5796 5795 5794 5793 5792 5792 5791 5790 5789
5817 5817 5817 5816 5815 5815 5815 5814 5815 5815 5815 5814 5814 5814 5813 5812 5812 5811 5811 5810 5809 5808 5807 5806 5805 5804 5802 5801 5800 5799 5798 5797 5797 5796 5795 5794 5794 5793 5792 5791 5791 5790 5789 5788 5788 5787 5786 5785 5784
5815 5814 5814 5813 5812 5811 5811 5811 5811 5811 5811 5811 5810 5810 5809 5808 5807 5807 5806 5805 5804 5803 5802 5800 5799 5798 5797 5796 5795 5794 5793 5792 5791 5791 5790 5789 5788 5787 5786 5786 5785 5784 5784 5783 5782 5781 5781 5780 5779
5812 5811 5810 5809 5808 5807 5807 5807 5808 5807 5807 5806 5806 5805 5805 5804 5803 5802 5801 5800 5799 5798 5797 5795 5794 5793 5791 5790 5789 5788 5788 5787 5786 5785 5784 5783 5782 5781 5780 5780 5779 5778 5778 5777 5776 5776 5775 5774 5773
5808 5808 5807 5806 5805 5804 5803 5806 5803 5803 5802 5802 5801 5800 5800 5799 5798 5797 5796 5795 5794 5792 5791 5790 5788 5787 5786 5785 5783 5783 5782 5781 5780 5780 5779 5777 5776 5775 5774 5774 5773 5772 5772 5771 5770 5770 5769 5768 5767
5804 5804 5803 5803 5802 5800 5800 5803 5799 5798 5797 5797 5796 5795 5794 5793 5792 5791 5790 5789 5787 5786 5785 5783 5782 5781 5780 5778 5777 5776 5775 5775 5774 5773 5772 5771 5770 5769 5769 5768 5767 5766 5765 5764 5764 5763 5762 5761 5760